Terminal Aerodrome Forecast
Issued by NWS Charleston, WV

Current Version | Previous Version | Text Only | Print | Product List | Glossary Off
Versions: 1 2 3 4 5 6 7 8 9 10 11 12 13 14 15 16 17 18 19

000
FTUS41 KRLX 170900 AAA
TAFHTS
TAF AMD
KHTS 170904Z 1709/1806 26007G17KT 6SM -RA BKN010 OVC016
     FM171400 26007KT P6SM OVC014=

USA.gov is the U.S. government's official web portal to all federal, state and local government web resources and services.